星链-5938 (STARLINK-5938 )

导读 | 豆包AI

STARLINK-5938是美国星链计划中的一颗卫星,于2023年3月17日发射入轨。星链计划是SpaceX打造的低轨卫星互联网项目,该卫星承担着为全球范围提供高速互联网接入服务的任务,补充完善星链星座的通信覆盖网络,推动全球卫星互联网服务的覆盖广度与服务稳定性提升。

基本信息
目录编号:
55960
目录名称:
STARLINK-5938
国际标识:
2023-037AY
轨道中心:
EARTH
卫星名称:
星链-5938
卫星全名:
星链-5938 (STARLINK-5938 )
卫星状态:
在轨 (已飞行1140 天)
发射日期:
2023-03-17 UTC
国别 :
美国 (US)
星等 :
--
轨道信息
数据来源 国际轨道数据 AOE轨道数据
星历时间 2026-04-30T12:12:24+0800
6小时前
查看轨道信息
2026-04-25T09:00:00+0800
5天前
查看轨道信息
半长轴 6950.196km 6950.209km
偏心率 0.0003697 0.0003622
轨道倾角 69.998° 70.000°
近地点辐角 269.041° 269.799°
升交点赤经 134.690° 147.632°
平近点角 91.033° 127.454°
近地点 569.489km 569.554km
远地点 574.629km 574.59km
周期 96.107分钟 96.107分钟
每日圈数 14.983293 14.983251
详细信息
固有亮度:
5
最大亮度:
2.5
卫星平台:
Starlink v1.5
覆盖范围:
全球
运营商:
太空探索技术公司
运营商所在国:
美国
制造商(研发单位):
太空探索技术公司
制造商所在国:
美国
使用方式:
暂无
卫星简介
星链(Starlink)计划是由太空探索技术公司(SpaceX)提出的一个巨型低轨卫星互联网星座项目,计划在2019年至2024年间在太空搭建由约1.2万颗卫星组成的“星链”网络,其中1584颗将部署在地球上空550千米处的近地轨道,并从2020年开始工作。该卫星仍在工作。
2D轨道图
3D轨道图
轨道高度分析图
轨道倾角分析图
轨道综合分析图
查看轨道综合分析图